Погода в Сафоново

Россия / Смоленская область     55°06′22″N   33°14′16″E
темп.,
°C
ветер,
м/с
пор.,
м/с
влажн.,
%
обл.,
%
осадки,
мм/ч
давл.,
гПа
погр.,
м
30 ноября, вт
вт3000:00+4всв4998100 2.4 979282
03:00+4ссз3699100 9.9 974225
06:00+4юз4898100 4.4 972877
09:000юз101696100 9.2 973866
12:00−2зюз101695100 3.3 973781
15:00−3з101893100 7.9 9761102
18:00−4з101893100 2.2 9811200
21:00−3з91792100 3.4 9841201
1 декабря, ср
ср100:00−4з81488100 0.3 987964
03:00−4зюз71289100 0.4 989910
06:00−4зюз61290100 0.1 990821
09:00−5з61190100 0.1 991735
12:00−5з51090100 0.1 993739
15:00−6з5988100 0.1 994811
18:00−7з499089 0.1 997483
21:00−8зюз499598 0.1 998306
2 декабря, чт
чт200:00−10юз259768 0.0 100082
03:00−7ю3796100 0.0 999198
06:00−4ю51191100 0.0 998504
09:00−4ююв71595100 0.7 995692
12:00−2ю71596100 1.3 994595
15:00+1ююз61399100 1.9 993742
18:00+2ююз61499100 0.3 994668
21:00+2юз81590100 0.4 995946
3 декабря, пт
пт300:00+2зюз7148384 0.1 996999
03:000зюз71385100 0.1 998915
06:00−2юз61288100 0.0 1000576
09:00−3юз4993100 0.0 1002269
12:00−1ююз3791100 0.0 1002350
15:00−1юз1396100 0.6 1001260
18:00−2зсз1398100 2.0 1001220
21:00−2з3797100 2.6 1001383
4 декабря, сб
сб400:00−2з4893100 0.1 1002458
03:00−4з4894100 0.1 1004349
06:00−5з5886100 0.1 1007615
09:00−8юз38935 0.1 1009152
12:00−5юз49907 0.0 1011346
15:00−5ююз358917 0.0 1012161
18:00−8ю36955 0.0 101395
21:00−8ю379615 0.0 1013134